Weather History for Eagle, CO

Change the Weather History Date:

Friday, August 30, 2013

  Actual Average Record
Temperature  
Mean Temperature 68 °F -  
Max Temperature 84 °F 81 °F 93 °F (1948)
Min Temperature 53 °F 42 °F 30 °F (1964)
Cooling Degree Days 4    
Growing Degree Days 18 (Base 50)    
Moisture  
Dew Point 51 °F    
Average Humidity 65    
Maximum Humidity 94    
Minimum Humidity 25    
Precipitation  
Precipitation 0.07 in - - ()
Sea Level Pressure  
Sea Level Pressure 30.38 in    
Wind  
Wind Speed 3 mph (East)    
Max Wind Speed 14 mph    
Max Gust Speed 28 mph    
Visibility 10 miles    
Events      
Averages and records for this station are not official NWS values.
T = Trace of Precipitation, MM = Missing Value Source: NWS Daily Summary

Daily Weather History Graph

Daily Weather History Graph

Search for Another Location

Airport:

Trip Planner

Search our weather history database for the weather conditions in past years. The results will help you decide how hot, cold, wet, or windy it might be!

Date:

Astronomy

Aug. 30, 2013 Rise Set
Actual Time 6:34 AM MDT 7:41 PM MDT
Civil Twilight 6:06 AM MDT 8:09 PM MDT
Nautical Twilight 5:33 AM MDT 8:42 PM MDT
Astronomical Twilight 4:58 AM MDT 9:16 PM MDT
Moon 1:15 AM MDT (8/30) 3:58 PM MDT (8/30)
Length of Visible Light 14h 02m
Length of Day
13h 07m
Waning Crescent, 28% of the Moon is Illuminated
Aug 30
Waning Crescent
Sep 5
New
Sep 12
First Quarter
Sep 19
Full
Sep 26
Last Quarter

Hourly Weather History & Observations

Time (MDT) Temp. Dew Point Humidity Pressure Visibility Wind Dir Wind Speed Gust Speed Precip Events Conditions
12:15 AM 64.4 °F 57.2 °F 77% 30.41 in 10.0 mi Calm Calm - N/A   Mostly Cloudy
12:35 AM 64.4 °F 57.2 °F 77% 30.41 in 10.0 mi Calm Calm - N/A   Partly Cloudy
12:55 AM 64.4 °F 55.4 °F 73% 30.41 in 10.0 mi SSE 3.5 mph - N/A   Clear
1:15 AM 62.6 °F 55.4 °F 77% 30.41 in 10.0 mi Calm Calm - N/A   Clear
1:35 AM 62.6 °F 55.4 °F 77% 30.41 in 10.0 mi Calm Calm - N/A   Clear
1:55 AM 60.8 °F 55.4 °F 82% 30.40 in 10.0 mi Calm Calm - N/A   Clear
2:15 AM 60.8 °F 55.4 °F 82% 30.41 in 10.0 mi Calm Calm - N/A   Clear
2:35 AM 59.0 °F 55.4 °F 88% 30.41 in 10.0 mi ESE 5.8 mph - N/A   Clear
2:55 AM 59.0 °F 55.4 °F 88% 30.41 in 10.0 mi East 5.8 mph - N/A   Clear
3:15 AM 57.2 °F 55.4 °F 94% 30.41 in 10.0 mi East 4.6 mph - N/A   Clear
3:35 AM 57.2 °F 53.6 °F 88% 30.41 in 10.0 mi East 5.8 mph - N/A   Clear
3:55 AM 57.2 °F 53.6 °F 88% 30.40 in 10.0 mi East 5.8 mph - N/A   Clear
4:35 AM 57.2 °F 51.8 °F 82% 30.41 in 10.0 mi SSE 3.5 mph - N/A   Clear
4:55 AM 55.4 °F 51.8 °F 88% 30.41 in 10.0 mi East 4.6 mph - N/A   Clear
5:15 AM 55.4 °F 53.6 °F 94% 30.41 in 10.0 mi Calm Calm - N/A   Partly Cloudy
5:35 AM 55.4 °F 51.8 °F 88% 30.41 in 10.0 mi Calm Calm - N/A   Mostly Cloudy
5:55 AM 55.4 °F 51.8 °F 88% 30.42 in 10.0 mi Calm Calm - N/A   Partly Cloudy
6:15 AM 53.6 °F 51.8 °F 94% 30.42 in 10.0 mi SE 3.5 mph - N/A   Scattered Clouds
6:35 AM 55.4 °F 51.8 °F 88% 30.42 in 10.0 mi Calm Calm - N/A   Partly Cloudy
6:50 AM 53.6 °F 51.8 °F 94% 30.43 in 10.0 mi Calm Calm - N/A   Mostly Cloudy
7:50 AM 55.4 °F 51.8 °F 88% 30.44 in 10.0 mi Calm Calm - N/A   Mostly Cloudy
8:50 AM 57.2 °F 53.6 °F 88% 30.44 in 10.0 mi Calm Calm - N/A   Mostly Cloudy
9:50 AM 60.8 °F 53.6 °F 77% 30.44 in 10.0 mi Calm Calm - N/A   Mostly Cloudy
10:50 AM 64.4 °F 53.6 °F 68% 30.43 in 10.0 mi Calm Calm - N/A   Overcast
11:50 AM 66.2 °F 51.8 °F 60% 30.42 in 10.0 mi Calm Calm - N/A   Overcast
12:50 PM 73.4 °F 51.8 °F 47% 30.39 in 10.0 mi Calm Calm - N/A   Mostly Cloudy
1:50 PM 78.8 °F 50.0 °F 36% 30.34 in 10.0 mi Variable 4.6 mph - N/A   Scattered Clouds
2:50 PM 82.4 °F 48.2 °F 30% 30.30 in 10.0 mi Variable 4.6 mph - N/A   Scattered Clouds
3:50 PM 84.2 °F 44.6 °F 25% 30.27 in 10.0 mi Variable 3.5 mph - N/A   Scattered Clouds
4:50 PM 80.6 °F 46.4 °F 30% 30.27 in 10.0 mi WNW 13.8 mph 27.6 mph N/A   Mostly Cloudy
5:50 PM 80.6 °F 44.6 °F 28% 30.28 in 10.0 mi West 9.2 mph - N/A   Mostly Cloudy
6:50 PM 78.8 °F 46.4 °F 32% 30.30 in 10.0 mi East 9.2 mph - N/A   Mostly Cloudy
7:15 PM 75.2 °F 46.4 °F 36% 30.31 in 10.0 mi East 5.8 mph - N/A   Mostly Cloudy
7:35 PM 75.2 °F 48.2 °F 38% 30.31 in 10.0 mi ENE 4.6 mph - N/A   Overcast
7:55 PM 73.4 °F 50.0 °F 44% 30.32 in 10.0 mi ENE 8.1 mph - N/A   Scattered Clouds
8:15 PM 71.6 °F 51.8 °F 50% 30.33 in 10.0 mi NE 11.5 mph - N/A   Clear
8:35 PM 69.8 °F 50.0 °F 49% 30.33 in 10.0 mi NE 8.1 mph - N/A   Clear
8:55 PM 69.8 °F 50.0 °F 49% 30.33 in 10.0 mi ENE 12.7 mph 19.6 mph N/A   Clear
9:15 PM 69.8 °F 48.2 °F 46% 30.34 in 10.0 mi East 8.1 mph - N/A   Clear
9:35 PM 69.8 °F 48.2 °F 46% 30.34 in 10.0 mi ESE 3.5 mph - N/A   Clear
9:55 PM 68.0 °F 48.2 °F 49% 30.34 in 10.0 mi SE 3.5 mph - N/A   Clear
10:15 PM 66.2 °F 48.2 °F 52% 30.34 in 10.0 mi Calm Calm - N/A   Clear
10:35 PM 66.2 °F 48.2 °F 52% 30.35 in 10.0 mi Calm Calm - N/A   Clear
10:55 PM 64.4 °F 48.2 °F 56% 30.35 in 10.0 mi SSE 4.6 mph - N/A   Clear
11:15 PM 64.4 °F 48.2 °F 56% 30.36 in 10.0 mi Calm Calm - N/A   Clear
11:35 PM 62.6 °F 48.2 °F 59% 30.37 in 10.0 mi Calm Calm - N/A   Clear
11:55 PM 62.6 °F 50.0 °F 63% 30.37 in 10.0 mi Calm Calm - N/A   Clear